TimeCST,TemperatureF,Dew PointF,Humidity,Sea Level PressureIn,VisibilityMPH,Wind Direction,Wind SpeedMPH,Gust SpeedMPH,PrecipitationIn,Events,Conditions,WindDirDegrees,DateUTC
12:52 AM,19.9,12.9,74,30.19,10.0,WNW,6.9,-,N/A,,Clear,290,2012-11-12 06:52:00
1:52 AM,19.9,12.9,74,30.19,10.0,West,9.2,-,N/A,,Clear,270,2012-11-12 07:52:00
2:52 AM,19.0,12.0,74,30.19,10.0,West,8.1,-,N/A,,Clear,270,2012-11-12 08:52:00
3:52 AM,19.9,12.0,71,30.17,10.0,West,10.4,-,N/A,,Clear,280,2012-11-12 09:52:00
4:52 AM,21.0,12.9,71,30.18,10.0,West,12.7,-,N/A,,Clear,270,2012-11-12 10:52:00
5:52 AM,21.2,14.0,74,30.14,10.0,West,11.5,-,N/A,,Clear,270,2012-11-12 11:52:00
6:52 AM,21.9,14.0,72,30.21,10.0,West,11.5,-,N/A,,Clear,270,2012-11-12 12:52:00
7:52 AM,21.9,15.1,75,30.22,10.0,West,12.7,-,N/A,,Clear,270,2012-11-12 13:52:00
8:52 AM,26.1,15.1,63,30.23,10.0,WNW,15.0,26.5,N/A,,Clear,300,2012-11-12 14:52:00
9:52 AM,28.0,16.0,61,30.25,10.0,WNW,16.1,25.3,N/A,,Clear,290,2012-11-12 15:52:00
10:52 AM,30.0,12.9,49,30.28,10.0,NW,18.4,28.8,N/A,,Clear,320,2012-11-12 16:52:00
11:52 AM,33.1,15.1,48,30.27,10.0,WNW,19.6,25.3,N/A,,Clear,290,2012-11-12 17:52:00
12:52 PM,34.0,14.0,44,30.27,10.0,WNW,18.4,27.6,N/A,,Clear,300,2012-11-12 18:52:00
1:52 PM,35.1,14.0,42,30.28,10.0,WNW,20.7,27.6,N/A,,Clear,300,2012-11-12 19:52:00
2:52 PM,36.0,15.1,43,30.30,10.0,NW,18.4,-,N/A,,Clear,310,2012-11-12 20:52:00
3:52 PM,35.1,16.0,46,30.31,10.0,WNW,16.1,23.0,N/A,,Clear,300,2012-11-12 21:52:00
4:52 PM,33.1,17.1,52,30.33,10.0,WNW,10.4,-,N/A,,Clear,300,2012-11-12 22:52:00
5:52 PM,30.0,17.1,59,30.35,10.0,WNW,6.9,-,N/A,,Clear,300,2012-11-12 23:52:00
6:52 PM,27.0,17.1,66,30.37,10.0,West,3.5,-,N/A,,Clear,260,2012-11-13 00:52:00
7:52 PM,21.0,16.0,81,30.38,10.0,SW,3.5,-,N/A,,Clear,230,2012-11-13 01:52:00
8:52 PM,21.9,16.0,78,30.39,10.0,SW,4.6,-,N/A,,Clear,230,2012-11-13 02:52:00
9:52 PM,21.0,15.1,78,30.40,10.0,ESE,4.6,-,N/A,,Clear,110,2012-11-13 03:52:00
10:52 PM,19.9,14.0,78,30.40,10.0,East,4.6,-,N/A,,Clear,100,2012-11-13 04:52:00
11:52 PM,18.0,15.1,88,30.40,10.0,ESE,4.6,-,N/A,,Clear,110,2012-11-13 05:52:00